Location: Praha
(50.0830°N, 14.4670°E)
Time: 10:17:16
(UTC+01:00)

ISS - Pass Details

Date: 22 January 2023
Orbit: 412 x 423 km, 51.6° (Epoch: 06 February)

Event Time Altitude Azimuth Distance (km) Brightness Sun altitude
Rises 18:22:18 0° 252° (WSW) 2,376 1.8 -16.3°
Reaches altitude 10° 18:24:24 10° 252° (WSW) 1,514 0.4 -16.6°
Maximum altitude 18:27:48 87° 171° (S) 431 -3.8 -17.1°
Enters shadow 18:28:37 50° 76° (ENE) 551 -3.6 -17.3°
